Terminal Aerodrome Forecast
Issued by NWS Aberdeen, SD

Home | Current Version | Previous Version | Text Only | Print | Product List | Glossary On
Versions: 1 2 3 4 5 6 7 8 9 10 11 12 13 14 15 16 17 18 19 20 21 22 23 24 25 26 27 28 29 30 31 32 33 34 35 36 37 38 39 40 41 42 43 44 45 46 47 48 49 50
000
FTAK31 PAFA 312239 AAB
TAFABR
TAF AMD
PABR 312239Z 3123/0118 22015KT 2SM -SHRA BR OVC015
     FM010300 28020KT 1 1/2SM -RA BR SCT007 BKN015 OVC025
     FM010600 31016KT 1 1/2SM -RA BR BKN007 OVC015=

USA.gov is the U.S. government's official web portal to all federal, state and local government web resources and services.